Pineville, WV

9:48 AM EDT on September 24, 2017 (GMT -0400)
Pineville

Weather History for KI16 - May, 2012

Change the Weather History Date:

Friday, May 11, 2012

  Actual Average (KBKW) Record (KBKW)
Temperature  
Mean Temperature 56 °F -  
Max Temperature 73 °F 70 °F 89 °F (1918)
Min Temperature 40 °F 46 °F 27 °F (1913)
Degree Days  
Heating Degree Days 8    
Growing Degree Days 6 (Base 50)    
Moisture  
Dew Point 42 °F    
Average Humidity 69    
Maximum Humidity 100    
Minimum Humidity 26    
Precipitation  
Precipitation 0.00 in - - ()
Sea Level Pressure  
Sea Level Pressure 30.22 in    
Wind  
Wind Speed - (North)    
Max Wind Speed -    
Max Gust Speed -    
Visibility 9 miles    
Events Fog    
Averages and records for this station are not official NWS values.
T = Trace of Precipitation, MM = Missing Value Source: NWS Daily Summary

Daily Weather History Graph

Daily Weather History Graph

Search for Another Location

Airport or City:

Trip Planner

Search our weather history database for the weather conditions in past years. The results will help you decide how hot, cold, wet, or windy it might be!

Date:

Astronomy

May. 11, 2012 Rise Set
Actual Time 6:19 AM EDT 8:25 PM EDT
Civil Twilight 5:50 AM EDT 8:54 PM EDT
Nautical Twilight 5:15 AM EDT 9:30 PM EDT
Astronomical Twilight 4:37 AM EDT 10:08 PM EDT
Moon 1:05 AM EDT (5/11) 11:49 AM EDT (5/11)
Length of Visible Light 15h 03m
Length of Day
14h 05m
Waning Gibbous, 63% of the Moon is Illuminated
May 11
Waning Gibbous
May 12
Last Quarter
May 20
New
May 28
First Quarter
Jun 4
Full

Hourly Weather History & Observations

Time (EDT) Temp. Dew Point Humidity Pressure Visibility Wind Dir Wind Speed Gust Speed Precip Events Conditions
12:15 AM 44.8 °F 44.6 °F 99% 30.10 in 10.0 mi North - - N/A   Scattered Clouds
12:35 AM 44.8 °F 44.6 °F 99% 30.11 in 10.0 mi North - - N/A   Scattered Clouds
1:15 AM 44.4 °F 44.2 °F 99% 30.12 in 10.0 mi North - - N/A   Scattered Clouds
1:35 AM 44.1 °F 43.9 °F 99% 30.12 in 10.0 mi North - - N/A   Scattered Clouds
1:55 AM 43.7 °F 43.5 °F 99% 30.12 in 10.0 mi North - - N/A   Clear
2:15 AM 43.2 °F 43.2 °F 100% 30.12 in 10.0 mi North - - N/A   Clear
2:35 AM 42.8 °F 42.8 °F 100% 30.12 in 10.0 mi North - - N/A   Clear
2:55 AM 42.4 °F 42.4 °F 100% 30.13 in 10.0 mi North - - N/A   Scattered Clouds
3:15 AM 42.1 °F 42.1 °F 100% 30.13 in 10.0 mi North - - N/A   Clear
3:35 AM 41.9 °F 41.9 °F 100% 30.13 in 10.0 mi North - - N/A   Clear
3:55 AM 41.4 °F 41.4 °F 100% 30.14 in 10.0 mi North - - N/A   Clear
4:15 AM 41.2 °F 41.2 °F 100% 30.15 in 10.0 mi North - - N/A   Clear
4:35 AM 40.6 °F 40.6 °F 100% 30.16 in 10.0 mi North - - N/A   Clear
4:55 AM 40.5 °F 40.5 °F 100% 30.17 in 10.0 mi North - - N/A   Clear
5:15 AM 40.3 °F 40.3 °F 100% 30.18 in 10.0 mi North - - N/A   Clear
5:35 AM 40.1 °F 40.1 °F 100% 30.19 in 10.0 mi North - - N/A   Scattered Clouds
5:55 AM 41.2 °F 41.2 °F 100% 30.19 in 5.0 mi North - - N/A   Overcast
6:15 AM 41.0 °F 41.0 °F 100% 30.20 in 1.0 mi North - - N/A   Overcast
6:35 AM 40.8 °F 40.8 °F 100% 30.21 in 0.5 mi North - - N/A Fog Fog
6:55 AM 40.6 °F 40.6 °F 100% 30.22 in 0.5 mi North - - N/A Fog Fog
7:15 AM 41.4 °F 41.4 °F 100% 30.23 in 0.5 mi North - - N/A Fog Fog
7:35 AM 41.9 °F 41.9 °F 100% 30.23 in 0.5 mi North - - N/A Fog Fog
7:55 AM 42.3 °F 42.3 °F 100% 30.23 in 1.0 mi North - - N/A   Overcast
8:15 AM 43.2 °F 43.2 °F 100% 30.24 in 10.0 mi North - - N/A   Scattered Clouds
8:35 AM 45.5 °F 45.5 °F 100% 30.25 in 10.0 mi North - - N/A   Clear
8:55 AM 48.7 °F 48.7 °F 100% 30.25 in 10.0 mi North - - N/A   Clear
9:15 AM 51.4 °F 49.5 °F 93% 30.25 in 10.0 mi North - - N/A   Clear
9:55 AM 57.0 °F 47.7 °F 71% 30.25 in 10.0 mi North - - N/A   Clear
10:15 AM 59.0 °F 47.3 °F 65% 30.25 in 10.0 mi North - - N/A   Clear
10:35 AM 60.3 °F 45.7 °F 59% 30.25 in 10.0 mi North - - N/A   Clear
10:55 AM 62.6 °F 38.5 °F 41% 30.25 in 10.0 mi North - - N/A   Clear
11:15 AM 63.7 °F 35.8 °F 35% 30.25 in 10.0 mi North - - N/A   Clear
11:35 AM 64.9 °F 32.7 °F 30% 30.25 in 10.0 mi North - - N/A   Clear
11:55 AM 65.7 °F 32.2 °F 29% 30.24 in 7.0 mi North - - N/A   Clear
12:15 PM 65.8 °F 32.0 °F 28% 30.24 in 10.0 mi North - - N/A   Clear
12:35 PM 66.2 °F 31.5 °F 27% 30.24 in 10.0 mi North - - N/A   Clear
12:55 PM 66.2 °F 32.7 °F 29% 30.23 in 10.0 mi North - - N/A   Clear
1:15 PM 68.4 °F 33.1 °F 27% 30.24 in 10.0 mi North - - N/A   Clear
1:35 PM 68.9 °F 33.1 °F 27% 30.24 in 10.0 mi North - - N/A   Clear
1:55 PM 69.6 °F 34.2 °F 27% 30.24 in 10.0 mi North - - N/A   Clear
2:15 PM 69.6 °F 34.5 °F 27% 30.24 in 10.0 mi North - - N/A   Clear
2:35 PM 70.9 °F 34.3 °F 26% 30.24 in 10.0 mi North - - N/A   Clear
2:55 PM 70.7 °F 34.3 °F 26% 30.23 in 10.0 mi North - - N/A   Clear
3:15 PM 71.2 °F 35.2 °F 27% 30.23 in 10.0 mi North - - N/A   Clear
3:35 PM 72.0 °F 35.2 °F 26% 30.24 in 10.0 mi North - - N/A   Clear
4:15 PM 72.9 °F 37.0 °F 27% 30.22 in 10.0 mi North - - N/A   Clear
4:35 PM 72.1 °F 36.5 °F 27% 30.22 in 10.0 mi North - - N/A   Clear
4:55 PM 73.2 °F 37.9 °F 28% 30.22 in 10.0 mi North - - N/A   Clear
5:15 PM 73.2 °F 39.7 °F 30% 30.22 in 10.0 mi North - - N/A   Clear
5:35 PM 73.2 °F 37.2 °F 27% 30.22 in 10.0 mi North - - N/A   Clear
5:55 PM 72.9 °F 35.8 °F 26% 30.22 in 10.0 mi North - - N/A   Clear
6:15 PM 72.1 °F 42.3 °F 34% 30.22 in 10.0 mi North - - N/A   Clear
6:35 PM 71.2 °F 40.1 °F 32% 30.23 in 10.0 mi North - - N/A   Clear
6:55 PM 68.7 °F 43.3 °F 40% 30.23 in 10.0 mi North - - N/A   Clear
7:15 PM 65.5 °F 48.0 °F 53% 30.23 in 10.0 mi North - - N/A   Clear
7:35 PM 61.9 °F 48.9 °F 62% 30.24 in 10.0 mi North - - N/A   Clear
7:55 PM 60.3 °F 50.7 °F 71% 30.25 in 10.0 mi North - - N/A   Clear
8:15 PM 58.8 °F 47.7 °F 66% 30.25 in 10.0 mi North - - N/A   Clear
8:35 PM 56.7 °F 48.7 °F 75% 30.26 in 10.0 mi North - - N/A   Clear
8:55 PM 55.0 °F 49.3 °F 81% 30.26 in 10.0 mi North - - N/A   Clear
9:15 PM 54.0 °F 48.2 °F 81% 30.27 in 10.0 mi North - - N/A   Clear
9:35 PM 52.5 °F 48.2 °F 85% 30.28 in 10.0 mi North - - N/A   Clear
9:55 PM 51.8 °F 47.5 °F 85% 30.28 in 10.0 mi North - - N/A   Clear
10:15 PM 50.9 °F 47.3 °F 87% 30.29 in 10.0 mi North - - N/A   Clear
10:35 PM 50.0 °F 46.8 °F 89% 30.29 in 10.0 mi North - - N/A   Clear
10:55 PM 49.5 °F 46.4 °F 89% 30.29 in 10.0 mi North - - N/A   Clear
11:15 PM 48.7 °F 46.2 °F 91% 30.29 in 10.0 mi North - - N/A   Clear
11:35 PM 48.2 °F 45.9 °F 92% 30.29 in 10.0 mi North - - N/A   Clear
11:55 PM 47.7 °F 45.7 °F 93% 30.29 in 10.0 mi North - - N/A   Clear